weather.gov     
National Weather Service

Regional Weather Roundup
NWS Homepage
This page is being discontinued on March 12, 2014.
The same data is available at this site. Please update your bookmarks.
Thank you, and we apologize for the inconvenience.
Please send an email to SR-SRH.Webmaster@noaa.gov with any concerns.


Current Version
Previous Version:    01  02  03  04  05  06  07  08  09  10  11  12  13  14  15  16  17  18  19  20  21  22  23  24  25  26  
[Printable]
817
ASUS41 KBGM 311710
RWRBGM
RWRBGM
BINGHAMTON REGIONAL WEATHER ROUNDUP
NATIONAL WEATHER SERVICE BINGHAMTON NY
100 PM EDT FRI OCT 31 2014

Note: "fair" indicates few or no clouds below 12,000 feet with no
significant weather and/or obstructions to visibility.

* = Station(s) that does not report precipitation, such as rain,
snow, etc, also no thunder or fog.

!NYZ009-015>018-022>025-036-037-044>046-055>057-062-311800
...CENTRAL NEW YORK...

CITY           SKY/WX    TMP DP  RH WIND       PRES   REMARKS
BINGHAMTON     CLOUDY    45  31  58 SE6       29.93F
CORTLAND       PTSUNNY   45  34  65 CALM      29.96F
DANSVILLE      CLOUDY    49  35  58 S5        29.93F
ELMIRA         PTSUNNY   49  33  54 S7        29.93F
ITHACA         CLOUDY    48  35  60 E5        29.95F
HAMILTON       PTSUNNY   46  36  66 CALM      29.97F
MONTICELLO     MOSUNNY   45  28  53 E7        29.95F
NORWICH        SUNNY     46  32  57 SE5       29.97F
ONEONTA        SUNNY     45  30  57 E6        29.95S
PENN YAN       CLOUDY    50  35  56 SE6       29.94F
ROME           SUNNY     47  34  60 SE10      30.00F
SIDNEY         SUNNY     48  43  81 CALM      29.96F
SYRACUSE       CLOUDY    51  36  56 CALM      29.97F
$$

!PAZ038>040-043-044-047-048-072-311800
...NORTHEAST PENNSYLVANIA...

CITY           SKY/WX    TMP DP  RH WIND       PRES   REMARKS
HAZLETON       SUNNY     48  32  53 NE7       29.94F
SCRANTON       SUNNY     52  30  43 N5        29.92F
TOWANDA*       PTSUNNY   48  30  49 NE5       29.95F
$$
&&
KEY
WCI = WIND CHILL INDEX
VSB = VISIBILITY
HX  = HEAT INDEX
$$




U.S. Dept. of Commerce
NOAA National Weather Service
1325 East West Highway
Silver Spring, MD 20910
E-mail: w-nws.webmaster@noaa.gov
Page last modified: May 16, 2007
NATIONAL WEATHER SERVICE: for Safety, for Work, for Fun - FOR LIFE